sat.trackr.live / text

‹ back to catalog

STARLINK-3256

NORAD 50202 · 2021-125AY

PAYLOAD ACTIVE UNKNOWN

§ Identity

Operator
Country
US
Launch date
2021-12-18
Launch site
AFWTR
Launch vehicle
Mass (kg)
RCS (m²)

Purposes: comms

External: N2YO · Heavens-Above · Gunter

§ Orbital elements

Epoch: 2026-05-25T00:44:05.809920Z

Period
95.44 min
Inclination
53.2158°
Eccentricity
0.0001286
Mean motion
15.08835575 rev/d
Perigee alt
538.9 km
Apogee alt
540.6 km
Semi-major
6,917.9 km
B*
1.1878e-4
RAAN
256.4104°
Arg perigee
99.1464°
Mean anomaly
260.9674°
Rev number
24,825

§ Raw data

STARLINK-32561 50202U 21125AY  26145.03062280  .00001603  00000+0  11878-3 0  99962 50202  53.2158 256.4104 0001286  99.1464 260.9674 15.08835575248259

JSON: /api/v1/satellites/50202 · /tle

For live sub-satellite position, see the globe view (requires WebGL).

§ Visibility from observer

Set your observer location to see the next 7 days of passes ≥ 10°. The values pass through the URL so the page stays shareable.

No JS? Fill the form by hand. The geolocation button needs JavaScript.